Regional Weather Roundup
Issued by NWS

Home | Current Version | Previous Version | Text Only | Print | Product List | Glossary Off
Versions: 1 2 3 4 5 6 7 8 9 10 11 12 13 14 15 16 17 18 19 20 21 22 23 24 25 26 27 28 29 30 31 32 33 34 35 36 37 38 39 40 41 42 43 44 45 46 47 48 49 50

000
ASUS43 KLOT 131906
RWRIL

ILLINOIS REGIONAL WEATHER ROUNDUP
NATIONAL WEATHER SERVICE CHICAGO/ROMEOVILLE IL
200 PM CDT SUN JUL 13 2014

NOTE: "FAIR" INDICATES FEW OR NO CLOUDS BELOW 12,000 FEET WITH NO
SIGNIFICANT WEATHER AND/OR OBSTRUCTIONS TO VISIBILITY.

* THESE STATIONS ARE NOT UNDER NWS QUALITY CONTROL. THEY ALSO MAY NOT
  REPORT WEATHER SUCH AS PRECIPITATION OR FOG.

ILZ001-002-007-009-015-016-024-132000-
NORTHWEST ILLINOIS

CITY           SKY/WX    TMP DP  RH WIND       PRES   REMARKS
MOLINE         MOSUNNY   83  68  60 W7        29.95F HX  86
STERLING*      SUNNY     82  70  65 NW8       29.94F HX  86
SAVANNA*       SUNNY     83  65  56 W9        29.94S HX  84
$$

ILZ003-004-008-010-011-017-018-132000-
NORTH CENTRAL ILLINOIS

CITY           SKY/WX    TMP DP  RH WIND       PRES   REMARKS
ROCKFORD       MOSUNNY   83  64  52 W10       29.94F HX  84
FREEPORT*      MOSUNNY   79  66  65 W10G18    29.96S HX  81
ROCHELLE*      SUNNY     80  65  60 W12       29.94F HX  82
DE KALB*       SUNNY     79  65  63 NW8       29.95F HX  81
PERU*          SUNNY     80  65  60 W7        29.96S HX  82
$$

ILZ005-006-012>014-019>023-132000-
NORTHEAST ILLINOIS

CITY           SKY/WX    TMP DP  RH WIND       PRES   REMARKS
CHICAGO-OHARE  MOSUNNY   83  59  44 NW10      29.91F HX  83
CHICAGO-MIDWAY MOSUNNY   84  61  45 W13       29.92F HX  84
AURORA         SUNNY     81  64  56 VRB3      29.94F HX  82
LANSING*       SUNNY     82  64  54 NW8       29.93F HX  83
JOLIET*        SUNNY     81  64  55 NW5       29.94F HX  82
WAUKEGAN       SUNNY     81  61  50 W6        29.89F HX  82
DUPAGE AIRPORT SUNNY     82  63  52 SW6       29.92F HX  83
KANKAKEE*      MOSUNNY   80  68  68 W3        29.95F HX  82
WHEELING       SUNNY     84  60  44 W10       29.92F HX  84
MORRIS*        SUNNY     81  69  67 NW5       29.94F HX  84
ROMEOVILLE*    SUNNY     80  63  56 W7        29.93F HX  81
NORTHERLY ISL    N/A     77  62  59 E2          N/A
$$

LMZ740>746-132000-
SOUTHERN LAKE MICHIGAN

STATION/POSITION SKY/WX   TEMP    WIND        PRES    VSBY  WAVE
                          AIR SEA DIR/SP/G                  HT/PER
                          (F)     (DEG/KT/KT) (MB)    (MI)  (FT/S)
SOUTHERN BUOY              63 62  190/ 10/ 12 1012.4F         1/ 3
WAUKEGAN HARBOR            80     300/  8/ 15 1013.5F
HARRISON CRIB              74     100/  8/  9   N/A
BURNHAM HARBOR             76     100/  5/ 16   N/A
CALUMET HARBOR             82     270/  4/  9 1014.0F
MICHIGAN CITY              71     240/  4/  5   N/A
$$

ILZ025>027-034>036-040-047-049-050-058-095>099-132000-
WEST-CENTRAL ILLINOIS

CITY           SKY/WX    TMP DP  RH WIND       PRES   REMARKS
QUINCY         PTSUNNY   83  69  62 N7        29.98F HX  86
GALESBURG*     SUNNY     85  69  60 W6        29.97S HX  88
MACOMB*        MOSUNNY   80  69  70 CALM      30.00S HX  82
JACKSONVILLE*  PTSUNNY   83  71  64 W3        29.99S HX  88
PITTSFIELD*    MOSUNNY   82  69  64 CALM      29.99F HX  86
$$

ILZ028>032-037-038-041>044-048-051>054-059>061-132000-
CENTRAL ILLINOIS

CITY           SKY/WX    TMP DP  RH WIND       PRES   REMARKS
PONTIAC        MOSUNNY   81  68  65 N5        29.95F HX  83
BLOOMINGTON    PTSUNNY   78  62  57 NW6       29.99S
DECATUR        PTSUNNY   81  71  71 SW8       29.97F HX  85
PEORIA         MOSUNNY   84  65  52 VRB5      29.96F HX  86
LACON*         SUNNY     80  68  66 NW6       29.95S HX  83
LINCOLN*       PTSUNNY   82  68  62 CALM      29.94F HX  85
SPRINGFIELD    PTSUNNY   84  70  62 VRB5      29.98S HX  88
TAYLORVILLE    CLOUDY    79  72  78 W7        29.97F HX  82
$$

ILZ033-039-045-046-055>057-062-063-132000-
EAST-CENTRAL ILLINOIS

CITY           SKY/WX    TMP DP  RH WIND       PRES   REMARKS
CHAMPAIGN      CLOUDY    82  71  69 VRB3      29.97S HX  86
RANTOUL*       CLOUDY    83  67  57 CALM      29.98S HX  85
MATTOON        CLOUDY    79  71  76 W9        29.97F HX  82
PARIS*         CLOUDY    78  73  84 W6        29.97F HX  81
$$

ILZ079-100>102-132000-
SOUTHWEST ILLINOIS

CITY           SKY/WX    TMP DP  RH WIND       PRES   REMARKS
ALTON          MOSUNNY   84  75  74 W7        29.98F HX  92
BELLEVILLE     PTSUNNY   88  73  61 VRB5      29.96F HX  96
CAHOKIA*       MOSUNNY   91  70  49 W7        29.96F HX  96
SPARTA*        PTSUNNY   88  72  58 W8        29.99S HX  94
$$

ILZ064>066-069>071-074>076-080>082-084>086-088>090-092>094-132000-
SOUTH-CENTRAL ILLINOIS

CITY           SKY/WX    TMP DP  RH WIND       PRES   REMARKS
CARBONDALE     MOSUNNY   92  72  51 SW13      29.97F HX  99
CAIRO*         SUNNY     93  74  54 SW9       29.99F HX 103
MARION         MOSUNNY   91  73  55 S12       29.99  HX 100
MT. VERNON     MOSUNNY   90  72  55 SW7       29.97F HX  96
CENTRALIA*     MOSUNNY   98  69  38 W7        29.98S HX 104
SALEM*         MOSUNNY   90  73  57 W6        29.97F HX  98
METROPOLIS*    MOSUNNY   92  71  49 SW8G17    29.98F HX  98
$$

ILZ067-068-072-073-078-083-087-091-132000-
SOUTHEAST ILLINOIS

CITY           SKY/WX    TMP DP  RH WIND       PRES   REMARKS
FLORA*         MOSUNNY   89  70  54 W9        29.96F HX  94
HARRISBURG*    SUNNY     90  71  52 SW10G16   29.98F HX  96
ROBINSON*      CLOUDY    87  75  68 W7        29.96F HX  96
CARMI*         MOSUNNY   92  75  57 SW10G18   29.95F HX 103
$$

ABBREVIATIONS USED IN REMARKS
   TC - TEMPERATURE IN CELSIUS
  WCI - WIND CHILL INDEX
   HX - HEAT INDEX
  VSB - VISIBILITY
$$



USA.gov is the U.S. government's official web portal to all federal, state and local government web resources and services.